CST,Max TemperatureF,Mean TemperatureF,Min TemperatureF,Max Dew PointF,MeanDew PointF,Min DewpointF,Max Humidity, Mean Humidity, Min Humidity, Max Sea Level PressureIn, Mean Sea Level PressureIn, Min Sea Level PressureIn, Max VisibilityMiles, Mean VisibilityMiles, Min VisibilityMiles, Max Wind SpeedMPH, Mean Wind SpeedMPH, Max Gust SpeedMPH,PrecipitationIn, CloudCover, Events, WindDirDegrees
2013-2-1,32,26,19,21,12,4,75,59,43,30.58,30.45,30.31,10,10,10,14,5,22,0.00,0,,92
2013-2-2,53,40,26,33,27,20,78,61,44,30.29,30.20,30.14,10,10,10,14,6,16,0.00,2,,263
2013-2-3,55,46,36,31,27,22,65,47,28,30.20,30.15,30.09,10,10,10,22,9,31,0.00,0,,289
2013-2-4,46,41,36,43,37,28,92,73,53,30.08,29.97,29.90,10,10,4,17,7,20,0.14,5,Rain,199
2013-2-5,52,44,35,45,39,34,100,89,77,30.07,30.01,29.94,10,3,0,9,2,12,0.00,3,Fog,249
2013-2-6,55,46,36,41,38,34,100,77,54,30.25,30.13,30.05,10,8,0,17,9,21,0.00,0,Fog,60
2013-2-7,61,53,45,57,51,36,100,83,65,30.04,29.94,29.88,10,8,2,13,6,32,0.21,7,Rain,251
2013-2-8,55,45,35,52,35,30,83,72,60,30.35,30.23,29.94,10,10,8,17,12,25,0.00,5,,34
2013-2-9,46,39,32,40,33,28,89,77,65,30.35,30.25,30.03,10,10,9,14,7,21,0.01,4,Rain,80
2013-2-10,62,54,45,57,50,33,93,68,43,30.02,29.83,29.70,10,9,2,25,14,37,0.42,6,Rain-Thunderstorm,182
2013-2-11,54,46,38,37,32,29,92,67,41,30.19,30.12,29.98,10,10,10,17,5,23,0.00,0,,267
2013-2-12,47,40,32,40,36,31,96,81,65,30.16,30.02,29.86,10,10,7,14,6,17,0.15,4,Rain,42
2013-2-13,49,44,39,39,38,36,93,80,66,30.02,29.95,29.86,10,10,6,15,8,21,0.11,6,Rain,290
2013-2-14,60,49,38,43,39,32,92,72,51,30.07,30.01,29.97,10,10,10,16,9,20,0.00,0,,233
2013-2-15,50,43,35,33,27,18,65,51,37,30.25,30.19,30.09,10,10,10,15,7,20,0.00,4,,325
2013-2-16,40,34,27,25,18,15,64,51,37,30.31,30.26,30.24,10,10,10,16,5,21,0.00,3,,293
2013-2-17,54,44,34,36,30,23,76,59,41,30.23,30.15,30.01,10,10,10,18,10,23,0.00,3,,179
2013-2-18,56,49,42,52,45,35,82,74,65,30.02,29.85,29.70,10,8,2,30,16,38,0.66,6,Rain-Thunderstorm,204
2013-2-19,49,41,33,34,22,14,70,49,28,30.29,30.20,30.00,10,10,10,23,11,30,0.00,0,,306
2013-2-20,37,33,29,23,17,13,63,50,37,30.39,30.31,30.24,10,10,10,20,9,24,T,4,,44
2013-2-21,35,33,31,34,30,22,100,82,63,30.22,29.93,29.80,10,6,2,25,13,32,1.29,8,Rain-Thunderstorm,58
2013-2-22,45,39,33,37,33,27,100,83,65,30.11,29.99,29.86,10,5,0,15,8,29,0.00,4,Fog,252
2013-2-23,47,38,29,31,26,23,85,65,45,30.09,30.05,29.99,10,10,10,10,3,14,0.00,0,,359
2013-2-24,52,40,28,37,31,25,92,71,50,30.12,30.04,29.94,10,10,10,14,7,17,0.00,0,,68
2013-2-25,56,47,38,50,41,30,100,74,47,29.93,29.57,29.30,10,7,2,24,16,30,1.32,6,Rain-Thunderstorm,57
2013-2-26,54,47,40,50,39,31,100,84,67,29.81,29.48,29.29,10,9,2,25,17,32,0.11,8,Rain,234
2013-2-27,45,41,37,34,30,27,76,66,55,29.99,29.91,29.81,10,10,10,21,11,25,T,7,Rain,281
2013-2-28,44,41,37,29,27,26,70,63,55,30.14,30.08,29.99,10,10,10,15,9,22,0.00,8,,313